Home   Weather   Antofagasta   Past weeks

Flag for Chile Past Weather in Antofagasta, Chile — Yesterday and Last 2 Weeks

Now
57 °F

Overcast.


Feels Like: 55 °F
Forecast: 61 / 64 °F
Wind: 8 mph from Southwest

Location: Antofagasta Airport

Current Time: Jul 27, 2017 at 9:00:41 pm

Latest Report: Jul 27, 2017 at 8:00 pm


Visibility: N/A

Pressure: 29.98 "Hg

Humidity: 77%

Dew Point: 50 °F

Location of AntofagastaLocation

Past Weather in Antofagasta — Graph

°F

Antofagasta Temperature Yesterday

Maximum temperature yesterday: 59 °F (at 12:00 pm)
Minimum temperature yesterday: 55 °F (at 2:00 am)
Average temperature yesterday: 57 °F

High & Low Weather Summary for the Past Weeks

 TemperatureHumidityPressure
High63 °F (Jul 13, 12:00 pm)94% (Jul 24, 12:00 am)30.18 "Hg (Jul 24, 12:00 am)
Low50 °F (Jul 18, 1:00 am)55% (Jul 16, 1:00 pm)29.89 "Hg (Jul 24, 4:00 pm)
Average57 °F75%30.03 "Hg
* Reported Jul 12 8:00 pm — Jul 27 8:00 pm, Antofagasta. Weather by CustomWeather, © 2017

Note: Actual official high and low records may vary slightly from our data, if they occured in-between our weather recording intervals... More about our weather records

Advertising

Antofagasta Weather History for the Previous 24 Hours

Scroll right to see more
 ConditionsComfort  
Time TempWeatherWind HumidityBarometerVisibility
8:00 pm
Thu, Jul 27
57 °FOvercast.8 mph77%29.98 "HgN/A
7:00 pm57 °FOvercast.6 mph77%29.98 "HgN/A
6:00 pm57 °FOvercast.7 mph77%29.98 "HgN/A
5:00 pm59 °FOvercast.8 mph72%29.98 "HgN/A
4:00 pm59 °FPartly sunny.8 mph72%29.98 "HgN/A
3:00 pm59 °FPartly sunny.9 mph72%29.98 "HgN/A
2:00 pm59 °FPartly sunny.9 mph72%29.98 "HgN/A
1:00 pm59 °FPartly sunny.7 mph72%30.01 "Hg6 mi
12:00 pm59 °FPartly sunny.6 mph72%30.01 "Hg6 mi
11:00 am59 °FPartly sunny.6 mph72%30.04 "Hg6 mi
10:00 am59 °FPartly sunny.3 mph72%30.01 "Hg6 mi
9:00 am57 °FPartly sunny.5 mph77%30.01 "Hg6 mi
8:00 am57 °FOvercast.3 mph72%29.98 "Hg5 mi
7:00 am57 °FOvercast.3 mph72%29.98 "HgN/A
6:00 am57 °FOvercast.3 mph72%29.95 "HgN/A
5:00 am57 °FOvercast.6 mph72%29.95 "HgN/A
4:00 am57 °FOvercast.5 mph77%29.95 "HgN/A
3:00 am57 °FOvercast.6 mph77%29.98 "HgN/A
2:00 am57 °FOvercast.6 mph77%29.98 "HgN/A
1:00 am57 °FOvercast.2 mph77%29.98 "HgN/A
12:00 am57 °FOvercast.3 mph77%29.98 "HgN/A
11:00 pm
Wed, Jul 26
57 °FOvercast.2 mph77%29.98 "HgN/A
10:00 pm57 °FOvercast.2 mph77%29.95 "HgN/A
9:00 pm57 °FOvercast.5 mph77%29.95 "HgN/A
Weather by CustomWeather, © 2017

See weather overviewHow to use our weather pages